[[{"header":{"parameterUnit":"m.s-1","parameterCategory":1,"la1":30.2991,"la2":30.254,"lo1":-89.0895,"lo2":-89.0444,"dy":0.0017,"dx":0.0017,"nx":28,"ny":28,"refTime":"2024-10-13T03:00:00:Z","depth":0,"parameterNumber":2,"parameterNumberName":"U-component_of_WINDS"},"data":[0,0,0,0,0,0,0,0,0,0,0,0,0,0,0,0,0,0,0,0,0,0,0,0,0,0,0,0,0,0,0,0,0,0,0,0,0,0,0,0,0,0,0,0,0,0,0,0,0,0,0,0,0,0,0,0,0,0,2.2231,2.2231,0,2.2248,2.2248,2.2248,2.2212,2.2211,2.221,2.2209,2.2225,2.2226,2.2227,0,0,0,0,0,0,0,0,0,0,0,0,0,2.2165,2.2167,2.2231,2.2231,2.2231,2.2248,2.2248,2.2248,2.2212,2.2211,2.221,2.2208,2.2224,2.2226,2.2228,0,0,0,0,0,0,0,0,0,0,0,0,0,2.2189,2.2167,2.2231,2.2216,2.2214,2.2248,2.2248,2.2248,2.2213,2.2211,2.2209,2.2208,2.2223,2.2226,2.2228,2.2276,0,0,2.2235,2.2236,0,0,0,0,0,0,0,0,2.2188,2.2191,2.2218,2.2217,2.2215,2.2226,2.223,2.2257,2.2213,2.2213,2.2209,2.2207,2.2226,2.2228,2.2235,2.2277,2.2278,2.2235,2.2236,2.2237,2.2238,0,0,0,0,0,0,0,2.2186,2.2191,2.2238,2.2218,2.2217,2.2207,2.2208,2.2235,2.2229,2.2213,2.2211,2.2213,2.2225,2.2233,2.2235,2.2278,2.2235,2.2237,2.2238,2.2239,2.2355,2.2357,0,0,0,0,0,0,2.2187,2.2189,2.2237,2.2238,2.2197,2.2209,2.2211,2.2224,2.2229,2.2228,2.2215,2.2211,2.223,2.2233,2.2236,2.2289,2.2237,2.2239,2.2241,2.2354,2.2356,2.2358,0,0,0,0,0,0,2.2185,2.2191,2.2236,2.2213,2.2218,2.2212,2.2228,2.2226,2.2233,2.223,2.2229,2.2224,2.2229,2.2233,2.2265,2.2289,2.224,2.2242,2.2352,2.2354,2.2357,2.2398,0,0,0,0,0,0,2.2184,2.2191,2.221,2.2214,2.2219,2.2267,2.2229,2.2227,2.2237,2.2233,2.2238,2.2237,2.2228,2.2262,2.2268,2.2291,2.2244,2.2349,2.2353,2.2356,2.2395,2.2402,2.2408,0,0,0,0,0,2.2182,2.2222,2.2212,2.2218,2.2244,2.2269,2.2272,2.226,2.224,2.2258,2.2255,2.2237,2.2286,2.2266,2.2272,2.2296,2.2348,2.2352,2.2356,2.2392,2.2401,2.2408,0,0,0,0,0,0,2.2222,2.2222,2.2211,2.2254,2.2261,2.2262,2.2285,2.2271,2.2284,2.228,2.2265,2.2266,2.2301,2.2302,2.228,2.2341,2.2313,2.2319,2.2339,2.2347,2.2354,2.2351,2.2246,0,0,0,0,0,2.2236,2.2257,2.2256,2.2294,2.2299,2.2291,2.2302,2.2292,2.2299,2.2302,2.2302,2.2309,2.2325,2.2337,2.2352,2.2396,2.2394,2.2415,2.2422,2.2427,2.2431,2.245,2.2458,2.2371,2.2371,2.2371,0,0,2.2265,2.2268,2.2282,2.2302,2.2307,2.2327,2.2294,2.2318,2.2333,2.2306,2.2336,2.2336,2.2343,2.238,2.2396,2.2382,2.2455,2.2432,2.2437,2.2438,2.2455,2.2463,2.2471,2.2373,2.2373,2.2372,0,0,2.2328,2.2334,2.2364,2.2369,2.2376,2.237,2.2378,2.2381,2.2379,2.241,2.2389,2.2405,2.2435,2.2439,2.2446,2.2507,2.2489,2.2513,2.2547,2.2565,2.2572,2.2578,2.2597,2.2604,2.2517,2.2517,2.2517,0,2.2363,2.2394,2.2382,2.2406,2.2413,2.239,2.2419,2.2424,2.2436,2.2441,2.2426,2.246,2.2464,2.2499,2.2514,2.2521,2.2526,2.2511,2.2573,2.2578,2.2584,2.2601,2.2608,2.252,2.2519,2.2519,2.2519,0,2.2434,2.2456,2.2479,2.249,2.2501,2.2528,2.2518,2.253,2.2519,2.2515,2.2544,2.2546,2.256,2.2568,2.2559,2.2602,2.2592,2.2575,2.2546,2.2595,2.261,2.2617,2.2523,2.2522,2.2521,2.2521,0,0,2.2523,2.2525,2.2534,2.2536,2.2541,2.2557,2.2582,2.2595,2.2604,2.2613,2.2631,2.2655,2.2638,2.2645,2.2635,2.2652,2.2696,2.2632,2.2632,2.2641,2.2739,2.275,2.2758,2.2685,2.2687,2.2688,2.2738,0,2.2582,2.2624,2.2612,2.2653,2.2671,2.2648,2.2668,2.2673,2.2669,2.2682,2.2678,2.2694,2.2673,2.2676,2.2692,2.2687,2.2715,2.2684,2.2699,2.27,2.2696,2.2767,2.2779,2.2827,2.2744,2.2745,2.2746,0,2.2657,2.2666,2.2709,2.2707,2.2714,2.2734,2.2742,2.2757,2.276,2.2756,2.2762,2.2749,2.277,2.2743,2.2771,2.275,2.2756,2.2755,2.2756,2.2755,2.2724,2.2765,2.2842,2.2848,2.2756,2.2756,2.2755,0,2.2712,2.2737,2.2764,2.2768,2.2768,2.2781,2.2782,2.2784,2.2791,2.2799,2.2803,2.2814,2.282,2.2828,2.2816,2.2798,2.2845,2.2817,2.2839,2.284,2.2848,2.2847,2.2924,2.2858,2.2857,2.2857,2.2857,0,2.2778,2.2804,2.2788,2.2805,2.2832,2.2819,2.2846,2.2844,2.2845,2.286,2.2841,2.2855,2.2841,2.2853,2.2844,2.2866,2.287,2.2865,2.2862,2.2865,2.2865,2.2867,2.2862,2.2859,2.2859,2.2858,2.2858,0,2.2844,2.2835,2.2863,2.286,2.286,2.288,2.2877,2.2891,2.2885,2.2904,2.2907,2.2898,2.2911,2.2901,2.2914,2.2908,2.2937,2.2931,2.2935,2.2932,2.2954,2.2951,2.3032,2.304,2.2971,2.2972,2.2972,0,2.2885,2.2904,2.2902,2.291,2.2912,2.2926,2.2932,2.2919,2.2927,2.293,2.2943,2.2955,2.2963,2.2984,2.2978,2.2987,2.2979,2.3007,2.298,2.2981,2.2975,2.2973,2.2973,2.3011,2.3012,2.3013,2.3013,0,2.2957,2.2951,2.2961,2.297,2.2978,2.2984,2.2989,2.2996,2.2982,2.2992,2.3004,2.301,2.3022,2.3032,2.3039,2.3039,2.3022,2.3022,2.3027,2.3029,2.3029,2.3026,2.2946,2.302,2.3019,2.3018,2.3018,2.3018,2.3009,2.3023,2.3023,2.3035,2.3037,2.3041,2.3053,2.3048,2.3058,2.3066,2.3058,2.3072,2.3072,2.3079,2.308,2.309,2.3079,2.3087,2.3088,2.309,2.3091,2.303,2.3092,2.3092,2.3092,2.3091,2.3091,0,2.3077,2.3075,2.3086,2.3092,2.31,2.3085,2.3089,2.3096,2.3109,2.3111,2.3118,2.3131,2.314,2.3134,2.3142,2.315,2.3143,2.3153,2.315,2.315,2.3103,2.3096,2.3158,2.3158,2.3158,2.3158,2.3158,2.3158,2.3113,2.3135,2.3129,2.315,2.3149,2.3162,2.3165,2.3167,2.3168,2.3183,2.319,2.3186,2.3184,2.3191,2.3198,2.3196,2.3198,2.3209,2.3204,2.316,2.3153,2.3147,2.3141,2.3211,2.3211,2.325,2.325,2.325]},{"header":{"parameterUnit":"m.s-1","parameterCategory":1,"la1":30.2991,"la2":30.254,"lo1":-89.0895,"lo2":-89.0444,"dy":0.0017,"dx":0.0017,"nx":28,"ny":28,"refTime":"2024-10-13T03:00:00:Z","depth":0,"parameterNumber":3,"parameterNumberName":"V-component_of_WINDS"},"data":[0,0,0,0,0,0,0,0,0,0,0,0,0,0,0,0,0,0,0,0,0,0,0,0,0,0,0,0,0,0,0,0,0,0,0,0,0,0,0,0,0,0,0,0,0,0,0,0,0,0,0,0,0,0,0,0,0,0,2.5443,2.5442,0,2.5415,2.5415,2.5414,2.5355,2.5354,2.5353,2.5352,2.5322,2.5322,2.5322,0,0,0,0,0,0,0,0,0,0,0,0,0,2.5442,2.5442,2.5443,2.5442,2.5442,2.5415,2.5415,2.5414,2.5355,2.5354,2.5352,2.5351,2.5322,2.5322,2.5322,0,0,0,0,0,0,0,0,0,0,0,0,0,2.5431,2.5442,2.5443,2.5409,2.5406,2.5415,2.5415,2.5414,2.5356,2.5354,2.5352,2.535,2.5322,2.5322,2.5323,2.5361,0,0,2.5324,2.5324,0,0,0,0,0,0,0,0,2.5432,2.5431,2.5415,2.5412,2.5408,2.5387,2.5403,2.5396,2.5356,2.5375,2.5352,2.535,2.5345,2.5343,2.5342,2.536,2.5358,2.5324,2.5324,2.5324,2.5325,0,0,0,0,0,0,0,2.5432,2.5432,2.5432,2.5415,2.5411,2.5395,2.5391,2.5402,2.537,2.5373,2.5369,2.5366,2.5343,2.5342,2.5341,2.5358,2.5324,2.5324,2.5325,2.5325,2.5402,2.5403,0,0,0,0,0,0,2.5438,2.5433,2.5433,2.5431,2.5416,2.5396,2.5392,2.5395,2.537,2.5364,2.5368,2.5364,2.5342,2.534,2.5339,2.538,2.5324,2.5325,2.5325,2.54,2.5402,2.5404,0,0,0,0,0,0,2.5439,2.5439,2.5434,2.5431,2.5429,2.5398,2.5402,2.5396,2.5395,2.5366,2.536,2.5373,2.534,2.5339,2.5355,2.5378,2.5325,2.5326,2.5398,2.5401,2.5403,2.5463,0,0,0,0,0,0,2.5439,2.5439,2.5455,2.5431,2.5429,2.5451,2.5404,2.5397,2.5396,2.539,2.5369,2.5364,2.5339,2.5355,2.5356,2.5378,2.5326,2.5396,2.5399,2.5402,2.5459,2.5468,2.5475,0,0,0,0,0,2.5439,2.5473,2.5456,2.5456,2.5448,2.5453,2.5451,2.5422,2.5398,2.5412,2.5393,2.5364,2.5376,2.5357,2.5358,2.538,2.5394,2.5398,2.5402,2.5456,2.5466,2.5475,0,0,0,0,0,0,2.55,2.547,2.545,2.5478,2.5468,2.5443,2.546,2.5435,2.5432,2.5426,2.539,2.5386,2.5406,2.5395,2.5375,2.5414,2.538,2.5384,2.5421,2.543,2.5438,2.544,2.5326,0,0,0,0,0,2.5517,2.5524,2.5497,2.5524,2.552,2.5491,2.5492,2.5471,2.5459,2.5455,2.5437,2.5426,2.5427,2.5428,2.5428,2.5458,2.545,2.5473,2.5481,2.5488,2.5491,2.5503,2.5511,2.5417,2.5417,2.5417,0,0,2.5552,2.5536,2.5543,2.5536,2.5526,2.5533,2.5488,2.5498,2.5502,2.5456,2.547,2.5456,2.5442,2.5464,2.5473,2.5455,2.5516,2.5493,2.5498,2.5498,2.5508,2.5517,2.5524,2.542,2.5419,2.5419,0,0,2.5618,2.5608,2.5628,2.5618,2.5603,2.5583,2.5588,2.5566,2.5555,2.5569,2.5533,2.5537,2.554,2.553,2.5525,2.5585,2.5557,2.5586,2.5627,2.5638,2.5646,2.5652,2.567,2.5678,2.559,2.559,2.559,0,2.5663,2.5672,2.5641,2.5653,2.5649,2.5608,2.5626,2.5618,2.5604,2.5602,2.5583,2.5583,2.5571,2.5589,2.5603,2.5602,2.5604,2.5587,2.5647,2.5653,2.5659,2.5676,2.5683,2.5593,2.5593,2.5593,2.5592,0,2.5726,2.5734,2.5751,2.5738,2.5737,2.5752,2.5722,2.5724,2.5702,2.5684,2.5696,2.5679,2.5673,2.5676,2.5655,2.569,2.5679,2.5654,2.5619,2.5672,2.5687,2.5693,2.5598,2.5597,2.5596,2.5595,0,0,2.5831,2.5798,2.5805,2.5797,2.5777,2.5781,2.5793,2.5787,2.5788,2.578,2.5787,2.5789,2.5765,2.576,2.5737,2.5748,2.5792,2.5721,2.572,2.5732,2.5826,2.5843,2.5851,2.5774,2.5775,2.5776,2.5826,0,2.589,2.5909,2.5881,2.5906,2.591,2.5869,2.5879,2.5867,2.585,2.585,2.583,2.5831,2.5801,2.5797,2.5806,2.5785,2.581,2.5781,2.5778,2.5779,2.5781,2.586,2.5879,2.5927,2.5832,2.5833,2.5834,0,2.5963,2.5956,2.5982,2.5957,2.5957,2.5967,2.5957,2.5959,2.5943,2.5929,2.5923,2.5895,2.5903,2.587,2.5879,2.586,2.5857,2.5847,2.5848,2.5845,2.5808,2.5857,2.5942,2.5948,2.5844,2.5843,2.5842,0,2.6032,2.603,2.6044,2.6039,2.6011,2.6019,2.6007,2.599,2.5987,2.5978,2.5975,2.5968,2.5964,2.5958,2.5928,2.5907,2.5939,2.5905,2.5926,2.5927,2.5934,2.5933,2.6017,2.5936,2.5936,2.5936,2.5935,0,2.6101,2.6117,2.6075,2.6083,2.61,2.6066,2.6082,2.6067,2.6051,2.6054,2.6019,2.6023,2.5985,2.5984,2.5961,2.597,2.5969,2.5956,2.5949,2.5958,2.5959,2.5954,2.5949,2.5937,2.5937,2.5937,2.5936,0,2.6181,2.6154,2.6166,2.6138,2.6131,2.6144,2.612,2.6125,2.6105,2.6109,2.6108,2.6076,2.6073,2.6043,2.6034,2.6018,2.6035,2.6023,2.604,2.6035,2.6057,2.6054,2.6139,2.6147,2.6063,2.6064,2.6065,0,2.6225,2.6237,2.6209,2.6209,2.6199,2.62,2.6196,2.6163,2.616,2.6141,2.6148,2.6142,2.6135,2.6131,2.6106,2.6098,2.6084,2.6114,2.6082,2.6089,2.6081,2.6079,2.6079,2.612,2.6121,2.6122,2.6123,0,2.6306,2.6291,2.6288,2.6279,2.6275,2.6267,2.6256,2.6257,2.622,2.6219,2.6215,2.6209,2.6198,2.6191,2.6178,2.6164,2.6136,2.6133,2.6137,2.6145,2.6153,2.6146,2.6056,2.6131,2.613,2.6129,2.6129,2.6129,2.6367,2.6374,2.6356,2.6352,2.634,2.633,2.6333,2.6313,2.6309,2.6297,2.6278,2.6276,2.6257,2.6236,2.6224,2.6221,2.6205,2.6212,2.6213,2.6214,2.6218,2.6155,2.6219,2.6219,2.6218,2.6218,2.6218,0,2.6443,2.6429,2.6426,2.6411,2.6408,2.6383,2.6368,2.6367,2.6366,2.6351,2.6344,2.6338,2.633,2.6304,2.6293,2.6295,2.6282,2.6294,2.6292,2.6289,2.6234,2.6231,2.6304,2.6304,2.6304,2.6304,2.6304,2.6304,2.6482,2.6492,2.6475,2.6477,2.6462,2.646,2.6454,2.6443,2.6431,2.6425,2.6419,2.6402,2.6382,2.6369,2.636,2.6352,2.6349,2.6364,2.6352,2.6301,2.6293,2.6285,2.6281,2.6364,2.6364,2.6406,2.6406,2.6407]}]]